ECMWFNIL_850_thetae_057.txt.gz
Theta_e
298 298 298 298 298 297 297 297 296 296 296 295 295 295 295 294 294 294 293 293 293 293 292 292 292 291 291 290 290 290 289 289 289 288 288 288 288 288 287 287 287 287
298 298 298 297 297 297 296 296 296 296 296 295 295 295 294 294 294 293 293 293 293 292 292 292 291 291 290 290 289 289 289 288 288 288 288 288 287 287 287 287 287 286
298 297 297 297 297 297 296 296 296 296 295 295 295 294 294 294 293 293 293 293 292 292 292 291 291 290 290 289 289 288 288 288 288 288 287 287 287 287 287 287 286 286
297 297 297 297 296 296 296 296 296 296 295 295 295 294 294 294 293 293 293 293 292 292 291 291 290 289 289 289 288 288 288 288 287 287 287 287 287 287 286 286 286 286
297 297 296 296 296 296 296 296 296 296 295 295 295 294 294 294 294 294 293 293 292 292 291 290 290 289 289 288 288 288 287 287 287 287 287 287 287 286 286 286 286 286
297 296 296 296 296 296 296 296 296 295 295 295 295 294 294 294 294 294 293 293 292 292 291 290 289 289 288 288 288 287 287 287 287 287 287 287 287 286 286 286 286 285
296 296 296 296 296 296 296 296 295 295 295 295 294 294 294 294 294 294 294 293 292 291 290 289 289 288 288 288 287 287 287 287 287 287 287 286 286 286 286 286 285 285
296 296 296 295 295 295 295 295 295 295 295 295 294 294 294 294 294 294 293 293 292 291 290 289 288 288 288 288 288 287 287 287 287 287 286 286 286 286 286 285 285 285
296 296 296 295 295 295 295 295 295 295 295 294 294 294 294 294 294 294 293 292 291 290 289 288 288 288 288 288 287 287 287 287 287 287 286 286 286 286 286 285 285 285
296 296 295 295 295 295 295 295 294 294 294 294 294 294 294 293 293 293 292 292 291 290 289 288 288 288 288 287 287 287 287 287 287 287 287 286 286 286 286 285 285 284
296 295 295 295 295 295 294 294 294 294 294 294 294 293 293 293 293 292 292 291 290 289 288 288 288 288 287 287 287 287 287 287 287 287 287 287 286 286 285 285 284 284
296 295 295 295 295 294 294 294 294 294 294 294 293 293 293 293 292 291 291 291 290 289 288 288 288 288 287 287 287 287 287 287 287 287 287 287 286 286 285 285 284 284
295 295 295 294 294 294 293 293 293 293 293 293 293 293 292 292 291 291 291 290 289 289 288 288 288 288 287 287 287 287 287 287 287 287 287 287 286 286 285 285 284 283
295 295 294 294 294 293 293 293 293 293 293 292 292 292 292 291 290 290 290 290 289 289 288 288 288 287 287 287 287 287 287 287 287 287 287 287 286 286 285 284 284 283
295 294 294 293 293 292 292 292 292 292 292 292 292 291 291 290 290 290 290 289 289 289 288 288 288 287 287 287 287 287 287 287 287 287 287 287 286 286 285 284 283 283
294 293 293 293 292 292 292 292 291 291 291 291 291 291 291 290 290 290 290 289 289 288 288 288 288 287 287 287 287 287 287 287 287 287 287 287 286 286 285 284 283 282
293 293 293 292 292 292 291 291 291 291 291 291 291 291 290 290 290 290 290 289 289 288 288 288 288 287 287 287 287 287 287 287 287 287 287 287 286 285 284 283 282 282
293 293 292 292 292 291 291 291 290 290 290 291 291 291 290 290 290 290 289 289 289 288 288 288 287 287 287 287 287 287 287 287 287 287 287 286 286 285 284 283 282 282
293 292 292 292 292 291 291 290 290 290 290 290 291 290 290 290 290 289 289 289 289 288 288 288 287 287 287 287 287 287 287 287 287 287 287 286 286 285 284 283 282 282
292 292 292 292 291 291 290 290 290 290 290 290 290 290 290 290 289 289 289 289 289 288 288 288 287 287 287 287 287 287 287 287 287 287 287 286 286 285 284 283 282 281
292 292 291 291 291 290 290 289 289 289 289 289 290 290 290 289 289 289 289 289 289 288 288 288 287 287 287 287 287 287 287 287 287 287 286 286 286 285 285 283 282 281
292 292 291 291 290 290 290 289 289 289 289 289 289 290 289 289 289 289 289 289 288 288 288 288 287 287 287 287 287 287 287 287 287 286 286 286 285 285 285 284 283 281
292 292 291 291 290 290 290 289 289 289 289 289 289 289 289 289 289 289 289 289 288 288 288 288 287 287 287 287 287 287 287 287 286 286 286 286 285 285 285 284 283 282
293 292 292 291 291 290 290 290 289 289 289 289 289 289 289 290 289 289 289 288 288 288 288 287 287 287 287 287 287 286 287 287 286 286 286 286 285 285 285 284 284 282
293 292 292 291 291 291 290 289 289 289 289 288 288 289 289 289 289 289 289 288 288 288 288 287 287 287 287 287 286 286 287 287 286 286 286 286 285 285 285 284 284 283
293 293 292 292 292 291 290 290 289 289 288 288 288 288 289 289 289 289 289 288 288 288 288 288 287 287 287 287 286 286 286 286 286 286 286 286 285 285 285 284 284 283

ECMWFNIL_850_thetae_060.txt.gz
Theta_e
301 300 300 300 299 299 299 298 298 297 297 297 297 297 296 296 295 295 294 294 294 293 293 293 293 292 292 292 292 291 291 291 290 290 289 289 288 288 288 287 287 287
300 299 299 299 298 298 298 297 297 297 297 297 296 296 296 295 295 295 294 294 293 293 293 292 292 292 292 292 291 291 291 290 290 289 289 288 288 288 287 287 287 287
299 299 298 298 298 298 297 297 297 297 297 296 296 296 296 295 295 294 294 293 293 293 292 292 292 292 292 291 291 291 290 290 289 289 288 288 287 287 287 287 287 286
298 298 298 298 297 297 297 297 297 297 296 296 296 296 295 295 295 294 294 293 293 292 292 292 292 292 292 291 291 290 290 289 289 288 288 287 287 287 287 286 286 286
298 298 297 297 297 297 297 297 297 297 297 296 296 296 295 295 295 294 294 293 293 292 292 292 292 292 291 291 291 290 290 289 288 288 287 287 287 287 286 286 286 286
297 297 297 297 296 296 297 297 297 297 297 296 296 296 295 295 295 294 294 293 293 292 292 292 292 292 292 291 291 290 289 288 288 287 287 287 287 286 286 286 286 286
297 297 297 296 296 296 296 297 297 297 296 296 296 295 295 295 295 294 294 293 293 293 292 292 292 292 292 291 290 290 289 288 288 287 287 287 286 286 286 286 286 286
297 297 296 296 296 296 296 296 296 296 296 296 296 295 295 295 295 294 294 293 293 293 292 292 292 292 292 291 290 289 288 288 288 287 287 287 287 286 286 286 286 285
297 297 296 296 296 296 296 296 296 296 296 296 296 295 295 295 294 294 294 293 293 293 292 292 293 292 292 290 289 289 288 288 287 287 287 287 287 286 286 286 286 286
297 297 296 296 296 296 296 296 296 296 296 296 295 295 295 294 294 294 293 293 293 293 292 293 293 292 291 290 289 288 288 288 287 287 287 287 287 287 286 286 286 286
297 296 296 296 296 296 296 296 296 296 295 295 295 295 294 294 294 294 293 293 293 292 292 293 293 292 291 290 289 288 288 288 287 287 287 287 287 287 286 286 286 286
297 296 296 296 296 296 296 295 295 295 295 295 295 295 294 294 293 293 293 292 292 292 292 293 292 291 290 290 289 288 288 287 287 287 287 287 287 287 287 286 286 286
297 296 296 296 296 296 295 295 295 295 295 295 295 294 294 293 293 293 292 292 292 292 292 292 291 291 290 289 288 288 288 287 287 287 287 287 287 287 287 287 286 286
297 296 295 295 295 295 295 295 295 295 294 294 294 294 293 293 293 292 292 292 291 291 292 292 291 290 290 289 288 288 288 287 287 287 287 287 287 287 287 287 287 286
296 295 295 295 295 295 294 294 294 294 294 294 293 293 293 292 292 291 291 291 291 291 291 291 291 290 289 289 288 288 288 287 287 287 287 287 287 287 287 287 286 286
296 295 295 295 294 294 294 294 294 293 293 293 293 293 292 292 292 291 291 291 291 291 291 291 291 290 289 288 288 288 288 288 287 287 287 287 287 287 287 287 287 286
296 295 295 294 294 294 293 293 293 293 293 292 292 292 292 292 291 291 291 291 291 291 291 291 290 290 289 289 289 288 288 288 288 288 287 287 287 287 287 287 286 286
296 295 295 294 294 293 293 293 293 292 292 292 292 292 292 291 291 291 291 290 291 291 291 290 290 289 289 289 289 289 288 288 288 288 288 288 287 287 287 287 286 286
296 295 295 294 293 293 293 292 292 292 292 291 291 291 291 291 291 290 290 290 291 291 290 290 290 289 289 289 289 289 288 288 288 288 288 288 287 287 286 286 286 286
296 295 294 293 293 292 292 292 292 292 291 291 291 291 291 290 290 290 290 290 291 291 290 290 290 289 289 289 289 289 288 288 288 288 288 288 287 287 286 286 286 285
296 295 294 293 292 292 292 292 291 291 291 290 290 290 290 290 290 290 290 290 291 291 291 290 289 289 289 289 289 289 288 288 288 288 288 287 287 287 287 286 286 285
296 295 294 293 292 292 292 291 291 291 290 290 290 290 290 289 289 290 290 290 290 291 291 290 289 289 289 288 288 288 288 288 288 288 288 287 287 287 287 287 286 286
296 295 294 293 292 292 291 291 291 291 290 290 290 290 289 289 289 289 289 289 290 290 290 290 289 289 289 288 288 288 288 288 288 288 288 287 287 287 287 287 286 286
296 295 294 293 292 292 291 291 291 291 290 290 290 289 289 289 289 289 289 289 289 290 289 289 289 289 288 288 288 288 288 288 288 288 288 287 287 287 287 287 287 286
295 295 294 293 292 292 292 291 291 290 290 290 289 289 289 289 289 289 289 289 289 289 289 289 289 289 288 288 288 288 287 288 288 287 287 288 287 287 287 287 287 286
295 295 294 293 293 292 292 291 291 290 290 289 289 289 289 289 288 288 288 289 289 289 289 289 289 288 288 288 287 287 287 287 287 287 287 288 287 287 287 287 287 286

ECMWFNIL_850_thetae_063.txt.gz
Theta_e
313 313 313 312 308 303 301 301 300 300 299 299 298 298 298 298 297 297 297 296 296 296 296 295 295 295 295 295 294 294 293 293 292 292 291 291 291 290 290 289 289 289
313 312 311 309 305 302 300 300 299 299 299 298 298 298 298 298 297 297 297 296 296 296 295 295 295 295 295 294 294 293 293 292 291 291 291 291 290 290 290 289 289 289
312 310 308 305 303 301 299 299 298 298 298 297 297 297 297 297 297 297 297 296 296 296 295 295 295 295 294 294 293 293 292 291 291 290 290 290 290 289 289 289 288 288
311 308 305 303 301 300 299 298 298 297 297 297 297 297 297 297 297 297 297 296 296 295 295 295 295 294 294 294 293 292 291 290 290 290 290 290 289 289 289 289 288 288
309 305 303 301 300 299 298 298 297 297 297 297 297 297 297 297 297 297 297 296 296 296 295 295 295 294 294 293 292 291 290 290 290 290 290 289 289 289 289 288 288 288
306 303 302 300 299 298 297 297 297 297 297 297 297 297 296 296 296 296 296 296 296 296 295 295 295 294 294 293 292 291 290 290 290 290 289 289 289 289 289 288 288 288
304 302 301 299 298 297 297 297 296 296 296 296 296 296 296 296 296 296 296 296 296 296 295 295 294 294 293 292 291 290 290 290 289 289 289 289 289 289 289 288 288 288
303 301 300 298 297 297 296 296 296 296 296 296 296 296 296 296 296 296 296 296 296 295 295 295 294 293 293 292 291 290 289 289 289 289 289 289 289 289 288 288 288 288
302 301 299 297 296 296 296 296 296 296 296 296 296 296 295 295 295 296 296 296 295 295 295 295 294 293 293 292 291 290 289 289 289 289 289 289 288 288 288 288 288 288
302 300 299 297 296 296 295 295 295 295 295 295 295 295 295 295 295 295 295 295 295 295 295 294 294 294 293 292 291 290 290 289 289 289 289 288 288 288 288 288 288 288
302 300 298 297 296 295 295 295 295 295 295 295 295 295 295 295 295 295 295 295 295 295 295 295 294 294 293 292 291 290 290 289 289 289 289 288 288 288 288 288 288 287
303 300 298 297 296 295 295 295 295 295 295 295 295 294 295 295 295 295 295 295 295 295 295 294 294 293 293 292 291 290 290 290 290 289 289 288 288 288 288 288 287 287
304 301 298 297 295 295 294 294 294 294 294 294 294 294 294 295 295 295 295 295 295 294 294 294 293 293 292 292 291 290 290 291 290 289 288 288 288 288 287 287 287 287
304 301 299 297 295 294 294 294 294 294 294 294 294 294 294 294 294 294 294 294 294 294 294 293 293 293 292 291 291 290 290 291 290 289 288 288 288 288 287 287 287 287
304 301 299 297 295 294 294 294 294 294 294 294 294 294 294 294 293 293 293 294 293 293 293 293 293 292 291 291 291 290 291 291 290 289 288 288 288 287 287 288 287 287
304 301 300 298 296 294 294 294 293 294 294 293 293 294 293 293 293 293 293 293 293 293 293 292 292 291 291 291 290 291 291 290 289 289 289 288 288 288 288 288 288 287
304 301 299 298 296 295 293 293 293 293 293 293 293 293 293 293 293 293 292 292 292 292 292 292 292 291 291 291 291 291 291 290 290 289 289 288 288 288 288 288 288 287
304 301 299 297 296 295 294 293 293 293 293 293 293 293 293 293 292 292 292 292 292 292 291 291 291 291 290 290 291 291 290 290 290 290 289 288 288 288 288 288 288 288
304 301 299 298 296 295 294 293 293 293 293 293 293 293 292 292 292 292 292 292 292 291 291 291 290 290 290 290 290 290 290 291 290 289 289 288 288 288 288 288 288 287
303 301 299 297 296 295 294 294 293 293 292 293 293 292 292 292 292 292 292 292 292 291 291 291 290 290 290 290 290 290 291 291 290 289 288 288 288 288 288 288 288 287
301 300 299 297 296 295 294 294 293 292 293 293 293 292 292 292 292 292 292 292 291 291 291 290 290 290 289 289 290 292 293 291 290 289 288 288 288 288 288 288 288 287
301 299 298 297 296 295 295 294 293 293 293 293 293 292 292 291 291 291 292 291 291 290 290 290 290 289 289 289 291 293 293 291 289 289 288 288 288 288 288 288 288 287
301 300 299 298 297 295 294 294 295 295 294 293 292 292 291 291 291 292 291 291 290 290 290 290 290 289 289 289 291 292 292 290 289 289 288 289 288 288 288 288 288 287
300 299 298 298 297 296 296 296 297 297 295 293 292 291 291 291 291 291 291 291 290 289 290 289 289 289 289 289 290 290 290 289 289 289 289 289 288 288 288 288 288 288
298 298 298 298 298 298 298 298 297 296 295 293 292 291 291 291 291 291 290 290 289 289 289 289 289 289 288 288 289 289 289 288 288 288 289 289 288 288 288 288 288 288
297 298 298 298 298 298 297 297 296 295 294 293 291 291 291 290 290 290 289 289 289 289 289 289 289 288 288 288 288 288 288 288 288 288 288 288 288 288 287 287 287 287

ECMWFNIL_850_thetae_069.txt.gz
Theta_e
315 315 316 318 317 316 316 315 314 313 315 315 313 314 315 313 309 306 302 298 297 297 296 296 296 296 296 296 296 296 296 296 296 296 297 297 298 297 297 297 297 296
315 315 317 317 316 316 315 313 313 313 315 315 313 313 314 311 306 302 299 297 296 296 296 295 296 296 296 296 296 296 296 296 296 297 297 298 298 297 297 296 296 295
316 316 317 316 315 315 314 312 313 314 315 314 313 313 312 308 303 299 297 296 296 295 295 295 295 295 295 295 296 296 296 296 296 296 297 297 296 296 296 295 295 294
317 316 316 315 315 314 312 312 314 314 314 314 313 313 310 304 300 298 296 296 295 295 295 295 295 295 295 295 295 295 295 295 295 295 295 296 295 295 295 294 294 293
316 315 313 314 314 313 312 313 314 312 313 314 313 312 308 302 298 297 296 296 295 295 295 295 295 295 295 295 295 294 294 294 293 293 294 295 295 295 294 293 293 292
315 313 312 313 314 313 312 313 313 311 311 313 312 311 307 301 298 297 296 296 295 294 294 294 294 294 294 294 294 294 293 293 293 293 293 293 294 294 293 293 292 292
314 314 313 312 312 311 311 313 312 311 311 312 312 310 306 300 297 296 296 295 295 294 294 294 294 294 294 294 293 293 293 292 292 292 293 293 293 293 292 292 292 291
312 314 313 312 310 310 311 313 312 311 311 311 311 309 305 300 297 296 295 295 294 294 294 294 294 294 294 294 293 292 292 292 292 292 292 292 292 291 291 291 291 291
311 313 313 312 311 310 311 312 312 311 311 311 310 308 304 299 296 295 295 294 294 294 294 293 293 293 293 293 292 292 292 292 292 292 292 291 291 291 291 291 291 290
311 312 313 312 311 310 310 311 311 310 310 310 309 307 303 298 295 295 295 294 294 294 293 293 293 293 293 292 292 292 292 292 292 291 291 291 291 290 291 290 290 290
311 312 312 311 311 311 310 310 310 309 310 310 308 305 301 297 295 294 294 294 293 293 293 293 293 292 292 292 292 292 292 292 291 291 291 291 291 291 291 290 290 289
311 311 310 310 311 311 310 310 310 309 310 310 307 304 300 296 294 294 294 294 293 293 293 293 292 292 292 292 292 292 292 292 291 291 291 291 292 292 291 291 290 289
310 310 309 309 310 311 310 310 309 309 310 309 307 304 300 296 294 294 294 293 293 293 293 292 292 292 292 292 292 292 291 291 292 292 292 292 292 292 292 292 292 290
309 309 308 308 308 310 310 310 309 309 309 309 307 304 300 296 294 293 294 293 293 293 292 292 292 292 292 292 292 292 291 292 292 292 292 292 292 291 292 294 294 291
307 307 308 308 308 308 310 310 309 309 309 309 307 304 300 296 293 293 293 293 293 293 292 292 292 292 292 292 292 292 292 292 292 291 292 293 292 292 293 294 294 293
307 306 306 307 307 307 308 310 310 309 309 308 306 303 300 296 293 293 293 293 293 293 292 292 292 292 292 292 292 292 292 292 291 291 293 294 293 292 292 293 294 294
306 306 306 306 306 307 308 309 309 309 308 307 305 303 299 295 293 293 293 293 292 292 292 292 292 292 292 292 292 292 292 291 290 292 294 295 294 292 291 292 294 294
306 306 305 305 305 306 307 308 308 308 307 306 304 302 298 295 293 292 293 292 292 292 292 292 292 291 292 292 292 292 292 290 290 292 295 295 294 291 289 290 292 293
305 305 305 305 305 305 306 307 307 307 306 304 302 300 298 294 292 292 292 292 292 292 292 292 291 291 291 292 292 292 291 289 290 293 295 295 294 292 289 288 290 292
303 304 304 305 305 306 306 306 307 307 306 304 301 299 297 294 292 292 292 292 292 292 292 292 291 291 291 292 292 292 290 289 291 294 295 295 294 292 289 288 289 291
301 302 303 304 305 306 306 306 306 306 306 305 302 298 296 294 292 292 292 292 292 292 291 291 291 291 291 292 292 291 289 289 292 294 295 294 294 293 291 290 290 290
301 301 301 302 303 304 304 305 305 305 305 304 302 299 296 294 292 291 291 291 291 291 291 291 291 291 291 291 291 290 289 290 292 294 295 294 294 293 292 292 291 290
300 300 300 301 302 303 304 304 304 304 303 302 301 299 296 293 291 290 290 290 290 291 291 291 291 290 290 291 290 289 289 290 293 294 294 294 293 293 292 292 291 291
299 299 299 299 300 301 302 302 303 303 302 301 300 299 297 295 292 290 290 290 290 290 290 290 289 289 289 289 289 289 290 291 293 294 294 293 293 292 292 292 291 291
298 298 298 298 298 299 300 300 301 300 300 299 298 297 297 296 295 293 291 290 289 289 289 288 288 288 289 289 289 289 290 292 293 294 293 293 292 292 291 291 291 291
297 297 298 298 298 298 298 298 298 298 298 297 297 296 296 295 295 294 292 290 289 288 288 288 289 289 289 288 289 290 291 292 293 293 292 292 291 291 290 290 290 290

ECMWFNIL_850_thetae_075.txt.gz
Theta_e
309 309 309 310 312 313 314 318 320 320 320 318 318 319 319 319 320 318 317 316 314 315 316 316 317 317 317 318 318 317 317 315 313 309 306 304 303 302 302 301 301 301
309 309 309 310 311 312 314 316 318 318 317 317 317 318 319 320 319 317 316 315 314 315 317 317 318 318 317 317 318 316 315 312 307 304 302 303 302 302 302 301 300 300
310 309 309 309 309 311 313 316 318 317 315 316 318 319 320 320 319 317 316 315 314 315 316 317 318 318 318 317 317 315 312 307 302 300 301 301 302 302 302 301 300 299
310 310 309 309 309 309 311 314 316 315 314 317 319 319 319 318 318 317 315 315 315 315 315 316 317 317 317 317 315 312 307 302 299 299 300 301 301 301 302 301 298 296
310 310 309 309 310 310 310 311 312 313 315 317 318 318 317 318 317 316 315 315 315 314 315 316 316 316 316 315 314 309 302 298 297 298 299 300 300 300 301 300 296 293
310 310 309 310 310 309 310 311 310 312 316 317 317 317 316 317 317 315 315 316 315 314 314 315 315 315 315 314 311 304 298 297 296 297 298 299 299 300 300 297 294 292
310 310 309 310 309 309 310 310 310 312 315 316 316 315 316 316 316 315 315 316 315 315 314 315 315 315 314 313 307 300 296 296 295 296 296 297 298 298 297 294 292 292
310 310 309 310 309 309 309 310 311 312 314 315 314 315 316 315 314 314 314 315 315 315 315 315 315 314 314 312 305 298 296 295 295 295 295 296 296 295 294 292 292 292
310 310 309 309 309 309 309 310 311 313 313 313 314 315 315 314 313 313 313 314 315 315 314 313 314 313 313 311 305 297 295 295 294 294 294 294 294 293 292 292 292 292
310 310 309 309 309 310 310 310 311 313 313 313 314 315 315 313 313 312 312 313 314 314 313 312 313 312 312 311 304 297 295 294 294 294 293 293 293 292 292 292 292 291
311 310 309 309 309 310 310 310 310 312 313 313 314 315 314 313 312 312 312 313 313 313 312 312 313 312 311 310 303 296 294 294 293 293 293 292 292 292 292 292 291 290
311 310 309 309 309 310 310 310 310 311 313 313 314 314 313 313 312 312 312 313 312 312 312 311 311 310 310 308 301 295 294 294 293 293 292 292 292 292 292 291 291 290
311 310 309 309 308 309 310 310 309 310 313 314 314 313 312 312 312 312 312 312 311 311 311 311 310 308 307 304 298 294 294 293 293 292 292 292 292 291 291 291 290 290
311 310 309 309 308 308 309 309 309 310 312 314 312 311 311 312 311 310 311 311 311 310 310 310 309 306 305 301 295 293 293 293 292 292 292 292 292 291 291 290 290 290
312 311 309 309 308 307 307 308 308 310 312 313 312 312 311 311 310 309 310 310 310 310 310 310 308 305 302 298 294 293 293 292 292 292 292 292 292 291 291 290 290 290
312 311 310 308 308 307 307 307 307 309 310 311 312 312 312 311 310 309 309 310 310 309 308 308 307 303 300 296 293 293 293 292 292 292 291 292 292 291 291 290 289 289
311 311 309 308 308 307 307 306 307 308 309 311 311 311 311 311 310 309 309 309 309 308 308 307 306 303 299 295 293 293 292 292 292 292 291 291 291 291 291 290 289 289
311 310 309 308 307 307 307 306 306 307 309 310 310 310 310 310 309 309 309 309 309 308 307 306 305 302 298 293 292 292 292 292 292 291 291 291 290 290 290 289 289 290
311 309 309 308 307 306 306 306 306 307 308 309 309 310 310 309 309 309 308 308 308 308 308 306 304 301 296 293 291 291 291 291 291 291 290 290 290 290 289 289 290 291
310 309 308 307 306 306 306 306 306 307 308 308 308 308 308 308 308 308 307 307 307 307 307 306 304 301 296 292 291 291 291 291 291 291 291 290 289 289 289 289 290 291
309 308 307 307 306 305 305 305 305 306 306 307 307 307 307 307 307 307 306 306 305 305 305 304 305 302 296 291 290 290 290 290 290 290 290 289 288 288 288 288 289 291
309 307 306 306 305 305 305 305 305 305 305 305 306 306 305 305 305 305 305 305 304 304 303 303 303 301 295 290 289 290 289 289 290 289 289 288 288 288 288 288 289 290
308 306 305 305 304 304 304 304 304 304 305 305 305 305 305 304 305 305 304 304 303 302 302 301 301 299 294 290 289 289 289 289 289 288 288 288 288 288 288 288 288 289
307 305 304 304 303 303 303 302 303 303 303 304 304 304 304 304 304 304 303 302 301 300 299 299 298 297 294 290 288 289 289 289 288 288 287 287 287 287 287 287 288 290
305 304 303 303 302 302 301 301 301 302 302 302 302 302 302 302 302 301 300 299 299 298 297 296 295 294 291 289 288 289 289 288 288 287 287 286 286 287 287 288 290 291
304 303 302 302 301 300 300 300 300 300 301 301 301 301 300 300 299 298 297 297 296 296 295 293 292 291 290 289 289 289 288 288 288 287 287 286 286 287 289 290 291 291